Total_Precipitation_Accumulation
0.00 0.00 0.01 0.01 0.01 0.02 0.03 0.06 0.13 0.21 0.16 0.24 0.32 0.42 0.56 0.71 0.94 0.96 1.03 1.11 1.29 1.62 2.06 2.65 3.27 3.84 4.54 5.25 5.73 5.60 4.91 4.28 3.59 3.01 2.44 2.30 2.08 1.85 1.63 1.43 1.20 1.07 0.95 0.86
0.01 0.03 0.03 0.02 0.02 0.03 0.04 0.07 0.13 0.17 0.14 0.14 0.25 0.51 0.64 0.74 0.90 0.86 0.86 0.82 0.99 1.42 2.04 2.76 3.36 3.58 3.57 3.75 3.90 3.43 3.13 2.93 2.48 2.20 2.01 1.84 1.75 1.55 1.35 1.23 1.11 0.85 0.78 0.75
0.02 0.04 0.03 0.02 0.03 0.04 0.07 0.09 0.09 0.15 0.16 0.21 0.35 0.66 0.85 0.78 0.75 0.66 0.65 0.78 1.27 1.72 2.15 2.63 2.76 2.75 2.64 2.58 2.49 2.19 2.03 2.15 2.04 1.98 1.89 1.76 1.78 1.68 1.46 1.19 1.04 0.83 0.67 0.64
0.01 0.03 0.03 0.04 0.04 0.04 0.07 0.06 0.04 0.04 0.12 0.34 0.50 0.89 1.04 0.94 0.84 0.59 0.61 0.96 1.52 1.83 2.10 2.07 1.66 1.49 1.62 1.69 1.73 1.90 1.90 1.90 1.78 1.74 1.51 1.29 1.17 1.06 0.96 0.94 0.89 0.87 0.73 0.63
0.03 0.03 0.03 0.04 0.04 0.03 0.04 0.04 0.03 0.05 0.15 0.39 0.65 1.05 1.23 0.99 0.80 0.56 0.45 0.59 1.02 1.22 1.15 0.93 0.79 0.84 1.05 1.26 1.48 1.83 1.87 1.74 1.62 1.54 1.47 1.43 1.30 1.21 1.07 1.01 1.02 0.97 0.95 0.82
0.04 0.04 0.04 0.03 0.03 0.03 0.03 0.04 0.10 0.20 0.37 0.82 0.86 0.94 1.16 0.96 0.76 0.57 0.37 0.43 0.68 0.71 0.54 0.54 0.62 0.80 1.00 1.16 1.26 1.45 1.57 1.69 1.70 1.70 1.64 1.50 1.39 1.32 1.19 1.03 0.93 0.88 0.87 0.84
0.09 0.08 0.06 0.04 0.03 0.04 0.03 0.05 0.25 0.60 0.89 1.00 0.71 0.86 1.15 0.77 0.50 0.38 0.26 0.24 0.28 0.31 0.38 0.54 0.60 0.77 0.87 0.99 1.01 1.09 1.19 1.34 1.42 1.47 1.52 1.50 1.43 1.34 1.17 1.04 0.91 0.86 0.76 0.69
0.14 0.14 0.08 0.04 0.05 0.05 0.04 0.03 0.10 0.21 0.32 0.51 0.67 1.06 1.13 0.73 0.39 0.22 0.15 0.14 0.16 0.20 0.24 0.29 0.34 0.43 0.55 0.73 0.90 1.02 1.03 1.02 1.00 1.01 1.16 1.28 1.26 1.22 1.13 1.10 0.91 0.82 0.76 0.74
0.04 0.04 0.04 0.04 0.05 0.03 0.03 0.03 0.04 0.05 0.08 0.31 0.73 1.00 0.90 0.54 0.36 0.25 0.21 0.19 0.18 0.18 0.20 0.21 0.22 0.28 0.37 0.43 0.56 0.75 0.78 0.77 0.76 0.79 0.87 0.92 0.98 1.07 1.10 1.02 0.85 0.73 0.73 0.74
0.02 0.02 0.03 0.03 0.03 0.04 0.04 0.03 0.03 0.05 0.10 0.23 0.56 1.02 1.14 0.74 0.49 0.37 0.31 0.24 0.19 0.20 0.20 0.20 0.22 0.24 0.26 0.29 0.41 0.55 0.66 0.67 0.67 0.69 0.73 0.72 0.82 0.90 0.95 0.92 0.84 0.73 0.72 0.75
0.02 0.01 0.02 0.03 0.04 0.06 0.05 0.04 0.05 0.06 0.07 0.15 0.41 0.65 0.62 0.61 0.48 0.33 0.29 0.25 0.20 0.21 0.22 0.24 0.21 0.25 0.23 0.23 0.30 0.41 0.56 0.61 0.55 0.57 0.63 0.70 0.76 0.87 0.91 0.88 0.87 0.79 0.76 0.77
0.02 0.01 0.02 0.04 0.06 0.06 0.07 0.07 0.07 0.08 0.08 0.11 0.20 0.33 0.36 0.37 0.42 0.45 0.37 0.32 0.31 0.32 0.25 0.25 0.20 0.21 0.18 0.20 0.26 0.34 0.41 0.46 0.46 0.52 0.61 0.66 0.70 0.79 0.88 0.85 0.85 0.87 0.86 0.83
0.02 0.01 0.03 0.10 0.15 0.14 0.10 0.09 0.08 0.08 0.08 0.08 0.19 0.32 0.32 0.28 0.30 0.35 0.34 0.39 0.41 0.34 0.31 0.24 0.21 0.20 0.17 0.17 0.21 0.28 0.37 0.45 0.45 0.49 0.60 0.67 0.65 0.69 0.80 0.86 0.86 0.88 0.92 0.95
0.02 0.02 0.02 0.08 0.16 0.20 0.19 0.14 0.10 0.06 0.06 0.06 0.10 0.21 0.21 0.31 0.39 0.36 0.38 0.44 0.39 0.25 0.24 0.22 0.19 0.20 0.24 0.23 0.26 0.33 0.43 0.45 0.48 0.51 0.57 0.64 0.67 0.74 0.82 0.84 0.87 0.90 0.90 0.95
0.02 0.02 0.02 0.02 0.06 0.11 0.17 0.16 0.11 0.06 0.05 0.06 0.07 0.12 0.19 0.34 0.44 0.46 0.45 0.45 0.39 0.29 0.27 0.23 0.24 0.24 0.26 0.30 0.34 0.41 0.53 0.54 0.55 0.68 0.77 0.83 0.81 0.85 0.90 0.92 0.92 1.00 1.00 1.01
0.04 0.04 0.03 0.03 0.05 0.08 0.10 0.13 0.09 0.06 0.05 0.05 0.06 0.13 0.25 0.40 0.46 0.48 0.43 0.40 0.37 0.35 0.29 0.27 0.28 0.31 0.29 0.31 0.38 0.45 0.54 0.61 0.72 0.98 1.11 1.12 1.16 1.17 1.16 1.14 1.09 1.15 1.22 1.34
0.11 0.09 0.07 0.05 0.07 0.08 0.13 0.11 0.10 0.08 0.07 0.07 0.10 0.19 0.27 0.38 0.53 0.59 0.50 0.38 0.37 0.35 0.35 0.35 0.38 0.43 0.40 0.41 0.44 0.47 0.51 0.61 0.77 0.95 1.09 1.18 1.22 1.23 1.28 1.30 1.31 1.32 1.37 1.41
0.19 0.19 0.15 0.10 0.10 0.17 0.15 0.12 0.13 0.12 0.12 0.15 0.23 0.31 0.35 0.38 0.44 0.48 0.41 0.39 0.41 0.40 0.44 0.48 0.49 0.53 0.53 0.53 0.53 0.58 0.70 0.80 0.89 1.00 1.11 1.26 1.31 1.35 1.39 1.34 1.28 1.26 1.26 1.25
0.24 0.27 0.24 0.21 0.19 0.18 0.16 0.19 0.21 0.20 0.24 0.27 0.37 0.48 0.52 0.50 0.50 0.58 0.50 0.48 0.47 0.49 0.50 0.55 0.60 0.62 0.67 0.73 0.72 0.73 0.83 0.96 1.07 1.13 1.26 1.36 1.44 1.52 1.46 1.35 1.28 1.19 1.15 1.07
0.29 0.32 0.38 0.32 0.34 0.33 0.25 0.29 0.28 0.30 0.49 0.46 0.51 0.62 0.70 0.70 0.85 0.89 0.67 0.62 0.56 0.50 0.53 0.58 0.67 0.72 0.76 0.86 0.90 0.89 0.92 0.98 1.05 1.11 1.18 1.27 1.35 1.48 1.50 1.41 1.37 1.31 1.28 1.18
0.41 0.44 0.41 0.41 0.43 0.38 0.35 0.33 0.34 0.59 0.79 0.73 0.69 0.68 0.78 0.88 0.81 0.76 0.63 0.61 0.58 0.51 0.52 0.54 0.61 0.72 0.77 0.84 0.92 0.98 0.98 0.94 0.94 0.92 0.91 1.00 1.14 1.26 1.33 1.35 1.34 1.38 1.38 1.31
0.57 0.61 0.58 0.53 0.66 0.73 0.52 0.43 0.59 0.80 0.80 0.87 0.78 0.74 0.79 0.84 0.86 0.80 0.71 0.64 0.57 0.48 0.50 0.54 0.58 0.64 0.73 0.83 0.96 1.06 1.03 0.99 0.97 0.96 0.98 1.03 1.10 1.09 1.08 1.14 1.18 1.25 1.32 1.29
0.74 0.77 0.77 0.77 0.88 0.81 0.60 0.59 0.65 0.66 0.79 0.82 0.77 0.77 0.75 0.74 0.75 0.69 0.59 0.54 0.55 0.49 0.46 0.43 0.48 0.56 0.68 0.84 0.99 1.10 1.07 1.11 1.12 1.08 1.11 1.12 1.14 1.14 1.14 1.13 1.13 1.13 1.11 1.03
0.80 0.67 0.78 0.93 1.03 0.88 0.73 0.66 0.66 0.69 0.74 0.75 0.73 0.78 0.77 0.70 0.65 0.62 0.56 0.49 0.49 0.45 0.39 0.38 0.39 0.46 0.56 0.65 0.74 0.87 0.92 1.00 1.10 1.08 1.00 0.92 0.90 0.91 0.95 1.00 1.00 1.02 0.98 0.93
0.81 0.78 0.85 1.08 1.24 1.14 0.97 0.79 0.72 0.79 0.81 0.83 0.83 0.79 0.74 0.71 0.73 0.76 0.68 0.53 0.43 0.41 0.41 0.41 0.42 0.46 0.50 0.55 0.60 0.68 0.78 0.89 1.05 1.11 1.04 0.98 0.94 0.90 0.89 0.93 0.97 0.94 0.92 0.87
0.67 0.80 0.94 1.19 1.18 1.20 1.14 0.90 0.84 0.90 0.96 0.94 0.87 0.81 0.77 0.78 0.76 0.68 0.60 0.51 0.41 0.41 0.46 0.51 0.52 0.51 0.49 0.51 0.57 0.65 0.75 0.89 1.03 1.05 0.96 0.94 0.94 0.93 0.92 0.89 0.92 0.94 0.83 0.82